sat.trackr.live / text

‹ back to catalog

STARLINK-3529

NORAD 51724 · 2022-016L

PAYLOAD ACTIVE UNKNOWN

§ Identity

Operator
Country
US
Launch date
2022-02-21
Launch site
AFETR
Launch vehicle
Mass (kg)
RCS (m²)

Purposes: comms

External: N2YO · Heavens-Above · Gunter

§ Orbital elements

Epoch: 2026-09-19T10:39:31.645728Z

Period
93.90 min
Inclination
53.1603°
Eccentricity
0.0001068
Mean motion
15.33553390 rev/d
Perigee alt
464.5 km
Apogee alt
466.0 km
Semi-major
6,843.4 km
B*
7.0640e-6
RAAN
168.7031°
Arg perigee
93.9739°
Mean anomaly
266.1385°
Rev number
25,281

§ Raw data

STARLINK-35291 51724U 22016L   26262.44411627 -.00000140  00000+0  70640-5 0  99942 51724  53.1603 168.7031 0001068  93.9739 266.1385 15.33553390252816

JSON: /api/v1/satellites/51724 · /tle

For live sub-satellite position, see the globe view (requires WebGL).

§ Visibility from observer

Set your observer location to see the next 7 days of passes ≥ 10°. The values pass through the URL so the page stays shareable.

No JS? Fill the form by hand. The geolocation button needs JavaScript.